�N����,����,�~����,�C��,���x,�C��,����,���ϕ���,�ő�u�ԕ���,�ő厞����,���˗�,�I�_���x,�n�����x,�ő啗���N��,DTYPE
"20/08/05","00:10",0.0,25.2,87.7,1010.0,286.4,0.6,1.3,264.9,0.00,23.1,26.9,"00:06:24",1
"20/08/05","00:20",0.0,25.1,87.8,1009.7,324.0,1.1,2.5,317.5,0.00,23.0,26.7,"00:17:12",1
"20/08/05","00:30",0.0,25.1,87.9,1010.4,299.3,0.8,1.7,322.1,0.00,23.0,26.5,"00:21:12",1
"20/08/05","00:40",0.0,24.9,88.1,1010.0,298.0,0.7,1.4,318.8,0.00,22.8,26.6,"00:30:24",1
"20/08/05","00:50",0.0,24.9,88.3,1010.2,310.0,0.8,1.4,310.0,0.00,22.9,26.7,"00:41:36",1
"20/08/05","01:00",0.0,24.7,88.4,1010.0,309.5,0.6,0.8,327.9,0.00,22.7,26.7,"00:52:40",1
"20/08/05","01:10",0.0,24.7,88.7,1010.4,283.7,0.6,1.0,289.5,0.00,22.7,26.6,"01:02:40",1
"20/08/05","01:20",0.0,24.7,88.8,1010.2,282.5,0.6,0.9,271.2,0.00,22.8,26.3,"01:14:24",1
"20/08/05","01:30",0.0,24.6,88.9,1010.2,280.7,0.6,0.9,330.0,0.00,22.7,26.3,"01:26:32",1
"20/08/05","01:40",0.0,24.7,89.1,1010.2,279.9,0.8,1.8,287.0,0.00,22.8,26.5,"01:36:08",1
"20/08/05","01:50",0.0,24.6,89.2,1010.0,299.8,0.7,1.1,317.5,0.00,22.7,26.3,"01:43:52",1
"20/08/05","02:00",0.0,24.5,89.4,1010.2,294.3,0.7,1.1,308.7,0.00,22.7,26.3,"01:54:16",1
"20/08/05","02:10",0.0,24.5,89.6,1010.2,300.1,0.8,1.4,286.5,0.00,22.7,26.2,"02:08:00",1
"20/08/05","02:20",0.0,24.5,89.7,1010.4,278.3,0.6,1.0,270.9,0.00,22.7,26.1,"02:17:04",1
"20/08/05","02:30",0.0,24.4,89.8,1010.4,279.7,0.7,1.1,307.9,0.00,22.7,26.1,"02:20:08",1
"20/08/05","02:40",0.0,24.3,90.0,1010.4,288.3,0.7,1.2,316.6,0.00,22.6,26.3,"02:31:44",1
"20/08/05","02:50",0.0,24.2,90.1,1010.4,285.2,0.7,1.0,271.8,0.00,22.5,26.2,"02:44:48",1
"20/08/05","03:00",0.0,24.2,90.2,1010.9,292.3,0.7,1.0,312.4,0.00,22.5,26.2,"02:50:40",1
"20/08/05","03:10",0.0,24.2,90.3,1010.7,298.2,0.6,1.2,345.5,0.00,22.5,26.1,"03:08:56",1
"20/08/05","03:20",0.0,24.2,90.4,1010.9,309.5,0.8,1.3,345.5,0.00,22.6,26.3,"03:15:20",1
"20/08/05","03:30",0.0,24.1,90.5,1010.9,296.7,0.6,1.1,269.6,0.00,22.5,25.9,"03:21:04",1
"20/08/05","03:40",0.0,24.0,90.6,1010.9,312.0,0.8,1.2,335.2,0.00,22.4,26.2,"03:34:00",1
"20/08/05","03:50",0.0,23.8,90.7,1010.9,303.2,0.7,1.0,307.2,0.00,22.2,26.0,"03:47:28",1
"20/08/05","04:00",0.0,23.7,90.8,1010.9,295.6,0.7,1.2,308.6,0.00,22.1,26.0,"03:54:56",1
"20/08/05","04:10",0.0,23.5,90.8,1011.2,294.3,0.7,1.6,319.0,0.00,21.9,26.1,"04:03:36",1
"20/08/05","04:20",0.0,23.4,91.0,1010.9,305.1,1.0,1.3,315.9,0.00,21.9,25.8,"04:10:56",1
"20/08/05","04:30",0.0,23.3,91.1,1010.7,291.2,0.7,1.1,309.5,0.00,21.8,25.9,"04:20:08",1
"20/08/05","04:40",0.0,23.3,91.3,1011.2,291.1,0.8,1.1,325.7,0.00,21.8,25.7,"04:31:04",1
"20/08/05","04:50",0.0,23.3,91.3,1011.6,319.3,1.1,1.3,325.8,0.00,21.8,25.9,"04:44:08",1
"20/08/05","05:00",0.0,23.3,91.5,1011.2,284.3,0.8,1.3,340.3,0.00,21.9,25.7,"04:50:32",1
"20/08/05","05:10",0.0,23.4,91.5,1011.2,272.5,0.7,1.0,279.6,0.00,22.0,25.7,"05:00:16",1
"20/08/05","05:20",0.0,23.4,91.7,1011.2,292.1,1.0,1.3,273.1,0.00,22.0,25.5,"05:12:32",1
"20/08/05","05:30",0.0,23.5,91.8,1011.4,325.6,1.2,1.9,342.1,0.00,22.1,25.5,"05:25:52",1
"20/08/05","05:40",0.0,23.3,91.9,1011.4,298.7,0.6,1.2,327.7,0.00,21.9,25.5,"05:36:24",1
"20/08/05","05:50",0.0,23.3,92.0,1011.2,275.6,0.8,1.2,269.8,0.00,22.0,25.5,"05:47:52",1
"20/08/05","06:00",0.0,23.4,92.2,1011.4,300.9,0.8,1.2,330.3,0.00,22.1,25.5,"05:53:28",1
"20/08/05","06:10",0.0,23.6,92.3,1011.2,299.8,0.8,1.1,276.4,0.01,22.3,25.4,"06:00:40",1
"20/08/05","06:20",0.0,24.0,92.3,1011.4,328.6,1.1,1.4,342.4,0.02,22.7,25.7,"06:11:04",1
"20/08/05","06:30",0.0,24.4,92.3,1011.2,297.0,0.5,1.0,333.4,0.03,23.1,25.6,"06:20:40",1
"20/08/05","06:40",0.0,25.0,92.3,1011.6,311.1,0.3,0.8,317.0,0.04,23.7,25.4,"06:39:04",1
"20/08/05","06:50",0.0,25.5,92.2,1011.4,319.8,0.6,1.1,333.1,0.05,24.2,25.7,"06:45:04",1
"20/08/05","07:00",0.0,26.3,92.0,1011.4,326.9,0.2,0.5,336.7,0.07,24.9,25.7,"06:50:16",1
"20/08/05","07:10",0.0,26.6,91.6,1011.9,0.7,0.2,0.6,349.2,0.09,25.2,25.7,"07:09:04",1
"20/08/05","07:20",0.0,27.2,91.4,1011.6,333.7,0.2,0.5,304.0,0.12,25.7,25.9,"07:10:16",1
"20/08/05","07:30",0.0,27.8,90.8,1011.4,339.6,0.2,0.8,346.6,0.14,26.2,25.9,"07:20:40",1
"20/08/05","07:40",0.0,27.3,89.3,1011.4,181.1,0.5,1.2,105.4,0.16,25.4,25.8,"07:32:08",1
"20/08/05","07:50",0.0,27.8,87.6,1011.6,46.6,0.3,1.0,7.9,0.16,25.6,26.1,"07:45:36",1
"20/08/05","08:00",0.0,28.1,85.0,1011.9,333.8,0.5,1.1,349.5,0.13,25.4,25.9,"07:50:08",1
"20/08/05","08:10",0.0,28.3,82.0,1011.4,313.9,0.5,1.1,347.1,0.15,25.0,26.1,"08:07:52",1
"20/08/05","08:20",0.0,28.7,79.2,1011.6,331.1,0.6,1.4,349.7,0.18,24.8,26.2,"08:11:04",1
"20/08/05","08:30",0.0,29.1,76.9,1011.9,208.0,0.3,1.2,186.7,0.21,24.7,26.3,"08:28:48",1
"20/08/05","08:40",0.0,29.7,75.8,1011.9,153.7,0.3,1.3,203.3,0.24,25.0,26.5,"08:30:56",1
"20/08/05","08:50",0.0,29.9,72.9,1012.6,16.2,0.7,1.8,351.2,0.25,24.5,26.5,"08:48:40",1
"20/08/05","09:00",0.0,30.1,71.6,1012.3,67.5,0.8,2.1,107.1,0.27,24.4,26.8,"08:57:36",1
"20/08/05","09:10",0.0,29.9,70.6,1012.6,89.6,0.7,1.7,22.6,0.28,24.0,26.6,"09:02:00",1
"20/08/05","09:20",0.0,30.6,69.8,1012.6,59.2,0.5,1.3,50.7,0.28,24.5,27.0,"09:16:16",1
"20/08/05","09:30",0.0,30.7,67.5,1012.3,32.5,1.0,1.7,5.2,0.32,24.0,27.1,"09:24:32",1
"20/08/05","09:40",0.0,31.2,66.9,1012.3,45.4,0.7,1.8,10.3,0.34,24.4,27.2,"09:34:16",1
"20/08/05","09:50",0.0,31.6,65.2,1012.8,87.8,0.7,1.8,67.5,0.36,24.3,27.3,"09:43:04",1
"20/08/05","10:00",0.0,31.6,63.6,1012.6,139.5,0.7,1.8,359.9,0.33,23.9,27.3,"09:52:48",1
"20/08/05","10:10",0.0,32.0,64.2,1012.8,19.7,0.5,1.3,5.9,0.39,24.4,27.8,"10:07:04",1
"20/08/05","10:20",0.0,31.9,61.0,1012.8,30.7,1.0,2.2,346.3,0.42,23.5,27.8,"10:12:40",1
"20/08/05","10:30",0.0,32.4,59.5,1012.8,31.3,1.0,2.1,10.8,0.46,23.5,27.8,"10:23:36",1
"20/08/05","10:40",0.0,32.5,57.7,1012.3,9.8,0.7,1.8,64.5,0.44,23.1,28.1,"10:37:12",1
"20/08/05","10:50",0.0,32.9,57.9,1012.8,168.2,0.3,1.2,176.3,0.41,23.6,28.2,"10:44:40",1
"20/08/05","11:00",0.0,33.0,57.3,1012.8,38.9,1.0,1.8,48.1,0.41,23.5,28.5,"10:50:24",1
"20/08/05","11:10",0.0,33.4,54.4,1013.0,99.1,0.7,1.6,349.9,0.47,23.0,28.5,"11:04:00",1
"20/08/05","11:20",0.0,33.8,55.5,1013.0,282.0,0.7,1.8,176.7,0.47,23.7,28.6,"11:18:56",1
"20/08/05","11:30",0.0,33.6,54.6,1012.6,171.8,1.1,2.4,196.1,0.51,23.2,28.9,"11:25:28",1
"20/08/05","11:40",0.0,33.7,54.7,1012.6,154.4,1.3,2.4,218.1,0.48,23.4,28.9,"11:30:40",1
"20/08/05","11:50",0.0,33.8,54.4,1012.6,268.8,0.7,2.5,173.8,0.39,23.4,29.2,"11:41:04",1
"20/08/05","12:00",0.0,33.8,55.3,1012.8,181.9,0.8,2.4,213.2,0.36,23.6,29.3,"11:58:56",1
"20/08/05","12:10",0.0,33.6,54.3,1012.1,208.7,0.8,2.4,219.3,0.37,23.1,29.2,"12:00:08",1
"20/08/05","12:20",0.0,34.4,54.7,1012.1,181.9,0.2,1.3,126.5,0.41,24.0,29.4,"12:12:48",1
"20/08/05","12:30",0.0,34.6,52.8,1012.3,104.2,0.7,2.4,55.9,0.45,23.6,29.5,"12:28:32",1
"20/08/05","12:40",0.0,34.7,55.3,1012.3,101.3,0.7,1.8,39.6,0.46,24.5,29.6,"12:33:44",1
"20/08/05","12:50",0.0,35.2,53.9,1012.3,194.9,0.7,2.4,177.6,0.48,24.5,29.7,"12:49:44",1
"20/08/05","13:00",0.0,34.4,53.8,1012.3,167.7,1.2,2.9,208.7,0.43,23.7,29.8,"12:58:24",1
"20/08/05","13:10",0.0,34.4,54.8,1012.1,160.6,1.2,3.5,224.2,0.42,24.0,29.8,"13:06:08",1
"20/08/05","13:20",0.0,34.4,53.1,1012.1,122.6,0.8,2.2,115.5,0.34,23.5,29.7,"13:16:48",1
"20/08/05","13:30",0.0,34.3,52.9,1011.6,133.2,1.0,2.1,132.3,0.39,23.4,29.8,"13:22:32",1
"20/08/05","13:40",0.0,34.4,53.3,1011.6,189.8,1.0,2.0,199.8,0.36,23.6,29.8,"13:30:48",1
"20/08/05","13:50",0.0,34.6,52.4,1011.4,175.0,0.6,2.2,232.7,0.31,23.5,29.9,"13:49:20",1
"20/08/05","14:00",0.0,34.6,51.8,1011.6,256.5,1.1,2.2,230.5,0.35,23.3,29.9,"13:50:02",1
"20/08/05","14:10",0.0,34.7,51.7,1011.4,241.7,1.0,2.8,208.7,0.31,23.3,29.9,"14:02:24",1
"20/08/05","14:20",0.0,35.0,51.3,1011.2,306.5,0.7,1.9,344.3,0.37,23.5,29.9,"14:15:52",1
"20/08/05","14:30",0.0,36.1,49.3,1011.4,211.6,0.6,1.7,223.2,0.47,23.8,30.1,"14:25:12",1
"20/08/05","14:40",0.0,35.9,48.0,1011.4,231.2,1.3,3.1,339.6,0.47,23.2,30.2,"14:30:48",1
"20/08/05","14:50",0.0,35.9,45.6,1011.6,250.6,1.0,2.5,339.7,0.46,22.4,30.3,"14:42:08",1
"20/08/05","15:00",0.0,36.6,45.6,1011.4,208.1,0.6,1.7,232.0,0.43,23.0,30.4,"14:59:52",1
"20/08/05","15:10",0.0,36.8,42.6,1011.4,224.0,0.7,2.4,219.5,0.42,22.1,30.4,"15:03:20",1
"20/08/05","15:20",0.0,36.6,39.8,1011.9,329.6,0.7,1.8,346.0,0.38,20.8,30.5,"15:11:28",1
"20/08/05","15:30",0.0,36.4,43.1,1011.6,327.8,0.7,2.4,325.5,0.33,21.9,30.6,"15:28:16",1
"20/08/05","15:40",0.0,36.1,42.7,1011.4,334.5,0.6,2.0,226.2,0.31,21.5,30.6,"15:36:08",1
"20/08/05","15:50",0.0,36.5,41.1,1011.2,323.6,0.6,1.4,329.2,0.28,21.2,30.6,"15:45:44",1
"20/08/05","16:00",0.0,36.3,44.0,1010.7,310.7,0.6,2.2,330.7,0.26,22.1,30.6,"15:57:04",1
"20/08/05","16:10",0.0,36.1,41.6,1010.7,265.0,0.8,2.1,333.1,0.26,21.0,30.4,"16:07:20",1
"20/08/05","16:20",0.0,35.8,41.8,1010.7,310.3,0.8,3.6,335.3,0.23,20.8,30.5,"16:12:56",1
"20/08/05","16:30",0.0,35.7,41.5,1010.4,280.9,0.7,2.5,227.4,0.21,20.6,30.3,"16:21:28",1
"20/08/05","16:40",0.0,35.3,43.0,1010.2,261.6,0.8,2.2,348.7,0.15,20.9,30.3,"16:38:16",1
"20/08/05","16:50",0.0,35.0,44.6,1010.4,292.2,0.7,1.7,220.6,0.14,21.2,30.3,"16:43:04",1
"20/08/05","17:00",0.0,35.1,46.3,1010.2,264.0,0.7,1.9,235.2,0.14,21.9,30.2,"16:53:44",1
"20/08/05","17:10",0.0,34.8,46.9,1010.0,294.1,0.6,1.4,341.9,0.12,21.8,30.2,"17:01:04",1
"20/08/05","17:20",0.0,34.7,50.5,1010.0,288.3,0.7,2.2,336.3,0.10,23.0,30.0,"17:12:24",1
"20/08/05","17:30",0.0,34.1,52.1,1009.5,267.7,1.0,2.0,273.2,0.08,22.9,30.0,"17:20:48",1
"20/08/05","17:40",0.0,33.7,53.8,1009.7,260.8,0.5,2.1,328.3,0.04,23.1,29.8,"17:30:24",1
"20/08/05","17:50",0.0,33.2,55.2,1009.7,337.3,1.2,2.7,338.2,0.02,23.0,30.0,"17:44:00",1
"20/08/05","18:00",0.0,32.6,57.3,1009.3,346.9,1.0,1.9,348.0,0.02,23.1,30.0,"17:56:00",1
"20/08/05","18:10",0.0,32.0,60.0,1009.0,347.9,0.8,2.1,351.5,0.01,23.3,29.6,"18:01:36",1
"20/08/05","18:20",0.0,31.3,62.0,1008.8,331.5,0.5,1.1,342.7,0.01,23.2,29.7,"18:16:56",1
"20/08/05","18:30",0.0,30.6,63.1,1008.3,345.8,1.1,2.1,342.1,0.00,22.8,29.5,"18:24:48",1
"20/08/05","18:40",0.0,29.9,64.2,1008.1,312.7,0.7,1.7,324.4,0.00,22.4,29.3,"18:32:56",1
"20/08/05","18:50",0.0,29.6,65.5,1007.6,283.0,0.6,1.3,330.9,0.00,22.5,29.3,"18:49:44",1
"20/08/05","19:00",0.0,29.1,66.6,1007.6,334.4,1.6,3.3,343.7,0.00,22.3,29.1,"18:57:36",1
"20/08/05","19:10",0.0,29.0,67.2,1007.4,327.1,1.8,2.8,346.1,0.00,22.3,29.1,"19:07:52",1
"20/08/05","19:20",0.0,28.7,68.4,1007.6,331.9,1.7,2.9,334.7,0.00,22.3,28.9,"19:11:28",1
"20/08/05","19:30",0.0,28.1,69.9,1008.1,294.0,0.8,2.1,355.9,0.00,22.1,28.8,"19:20:24",1
"20/08/05","19:40",0.0,27.8,71.2,1008.3,289.9,0.8,1.4,301.1,0.00,22.1,28.5,"19:34:16",1
"20/08/05","19:50",0.0,27.5,72.6,1008.8,331.2,0.7,1.8,289.6,0.00,22.2,28.6,"19:42:40",1
"20/08/05","20:00",0.0,27.3,73.5,1009.0,293.8,1.0,1.6,305.7,0.00,22.2,28.6,"19:58:00",1
"20/08/05","20:10",0.0,27.0,73.6,1009.0,325.1,1.0,2.4,347.8,0.00,21.9,28.4,"20:06:56",1
"20/08/05","20:20",0.0,27.3,73.0,1009.3,331.2,1.2,2.0,324.7,0.00,22.1,28.2,"20:16:40",1
"20/08/05","20:30",0.0,27.2,73.6,1009.3,330.1,1.1,1.9,339.9,0.00,22.1,28.2,"20:28:24",1
"20/08/05","20:40",0.0,26.7,74.9,1009.0,304.8,0.6,1.1,309.5,0.00,21.9,28.2,"20:35:52",1
"20/08/05","20:50",0.0,26.4,76.1,1009.0,285.5,0.7,1.1,310.6,0.00,21.9,28.0,"20:45:04",1
"20/08/05","21:00",0.0,26.4,76.8,1009.3,286.5,0.7,1.6,280.9,0.00,22.0,27.8,"20:59:28",1
"20/08/05","21:10",0.0,26.4,77.2,1009.5,283.0,1.0,2.1,305.8,0.00,22.1,27.9,"21:01:04",1
"20/08/05","21:20",0.0,26.4,77.1,1009.5,289.8,0.7,1.1,291.6,0.00,22.1,27.9,"21:10:08",1
"20/08/05","21:30",0.0,26.3,77.2,1009.5,278.9,0.7,1.2,325.6,0.00,22.0,27.7,"21:23:04",1
"20/08/05","21:40",0.0,26.3,77.3,1009.5,269.5,0.7,1.3,284.2,0.00,22.0,27.4,"21:36:24",1
"20/08/05","21:50",0.0,26.2,77.5,1009.7,298.2,0.7,1.6,290.2,0.00,22.0,27.3,"21:41:04",1
"20/08/05","22:00",0.0,26.1,77.9,1009.5,285.6,0.8,2.0,326.2,0.00,22.0,27.4,"21:50:48",1
"20/08/05","22:10",0.0,26.0,78.4,1009.5,269.8,0.6,1.1,253.5,0.00,22.0,27.3,"22:04:00",1
"20/08/05","22:20",0.0,25.9,78.8,1010.0,290.9,0.7,1.2,300.9,0.00,22.0,27.3,"22:12:08",1
"20/08/05","22:30",0.0,25.7,79.4,1009.7,313.3,0.6,1.1,325.2,0.00,21.9,27.3,"22:26:08",1
"20/08/05","22:40",0.0,25.3,80.2,1010.0,291.3,0.5,0.9,274.0,0.00,21.7,27.2,"22:36:56",1
"20/08/05","22:50",0.0,25.3,80.9,1009.7,286.8,0.6,1.1,281.3,0.00,21.8,27.0,"22:42:56",1
"20/08/05","23:00",0.0,25.4,81.3,1010.0,278.8,0.7,1.4,267.8,0.00,22.0,27.1,"22:54:16",1
"20/08/05","23:10",0.0,25.4,81.5,1009.7,288.4,0.6,1.3,341.4,0.00,22.0,27.0,"23:08:16",1
"20/08/05","23:20",0.0,25.2,82.0,1009.7,336.3,0.8,1.3,358.1,0.00,21.9,26.9,"23:18:40",1
"20/08/05","23:30",0.0,25.0,82.8,1009.7,333.9,0.8,1.4,344.2,0.00,21.9,27.0,"23:25:44",1
"20/08/05","23:40",0.0,24.7,83.6,1010.0,292.3,0.6,1.1,290.6,0.00,21.8,26.7,"23:38:16",1
"20/08/05","23:50",0.0,24.8,83.9,1009.7,295.1,0.7,1.6,272.2,0.00,21.9,26.8,"23:41:44",1
"20/08/05","24:00",0.0,24.8,84.2,1009.7,335.8,0.8,1.4,343.8,0.00,22.0,26.8,"23:54:08",1
